Date String (YYYY-MM-DD hh:mm:ss) UTC,Instrument flags,Ambient pressure (hPa),Sample flow (lpm),Bypass flow (lpm),Sample temperature (°C),Ambient temperature (°C),ASC tube jacket temperature (°C),LED temperature (°C),Box temperature (°C),Sample RH (%),Span deviation,Mass concentration (μg/m³),Mass concentration (μg/m³),Mass concentration (μg/m³)
DateTimeUTC,F1_M11,P_M11,Q1_M11,Q2_M11,T1_M11,T2_M11,T3_M11,T4_M11,T5_M11,U1_M11,ZSPAN_M11,X0_M11,X2_M11,X1_M11
2022-03-11 16:00:00,,0828.0,5.00,0.00,23.0,22.3,00.0,31.9,24.8,06.2,0000.0,0016.03,0007.70,0006.51
2022-03-11 16:01:00,,0828.3,5.00,0.00,23.0,22.3,00.0,31.9,24.8,06.1,0000.0,0015.75,0007.81,0006.59
2022-03-11 16:02:00,,0828.1,5.00,0.00,23.0,22.3,00.0,31.9,24.7,06.1,0000.0,0016.17,0007.93,0006.70
2022-03-11 16:03:00,,0828.2,5.00,0.00,23.0,22.2,00.0,31.9,24.7,06.1,0000.1,0016.33,0007.98,0006.83
2022-03-11 16:04:00,,0828.2,5.00,0.00,23.0,22.2,00.0,31.9,24.7,06.3,0000.0,0016.05,0008.01,0006.98
2022-03-11 16:05:00,,0828.1,4.99,0.00,22.9,22.2,00.0,31.9,24.7,06.3,0000.4,0015.94,0008.10,0007.14
2022-03-11 16:06:00,,0828.1,4.99,0.00,22.9,22.2,00.0,31.9,24.7,06.2,0000.6,0016.20,0008.24,0007.34
2022-03-11 16:07:00,,0828.1,5.00,0.00,22.9,22.1,00.0,31.9,24.7,06.3,0000.2,0017.19,0008.38,0007.56
2022-03-11 16:08:00,,0828.1,5.01,0.00,22.9,22.1,00.0,31.9,24.7,06.3,-000.2,0017.54,0008.49,0007.80
2022-03-11 16:09:00,,0828.2,5.00,0.00,22.9,22.1,00.0,31.9,24.7,06.2,-000.4,0017.09,0008.63,0008.02
2022-03-11 16:10:00,,0828.2,5.00,0.00,22.9,22.1,00.0,31.9,24.7,06.3,-000.4,0016.79,0008.81,0008.25
2022-03-11 16:11:00,,0828.2,5.01,0.00,22.9,22.1,00.0,31.9,24.7,06.5,0000.0,0016.18,0008.97,0008.46
2022-03-11 16:12:00,,0828.2,5.00,0.00,22.9,22.1,00.0,31.9,24.7,06.4,-000.1,0016.16,0009.12,0008.64
2022-03-11 16:13:00,,0828.3,5.00,0.00,22.9,22.1,00.0,31.8,24.6,06.3,-000.1,0015.99,0009.29,0008.80
2022-03-11 16:14:00,,0828.2,5.00,0.00,22.9,22.1,00.0,31.8,24.7,06.2,0000.0,0016.05,0009.46,0008.94
2022-03-11 16:15:00,,0828.2,5.00,0.00,22.9,22.1,00.0,31.8,24.7,06.3,0000.3,0016.30,0009.60,0009.05
2022-03-11 16:16:00,,0828.2,5.00,0.00,22.9,22.1,00.0,31.8,24.7,06.3,-000.1,0016.30,0009.66,0009.14
2022-03-11 16:17:00,,0828.2,5.00,0.00,22.9,22.1,00.0,31.8,24.6,06.2,0000.0,0015.93,0009.68,0009.18
2022-03-11 16:18:00,,0828.2,5.00,0.00,22.9,22.1,00.0,31.8,24.7,06.2,0000.3,0014.78,0009.68,0009.19
2022-03-11 16:19:00,,0828.3,5.00,0.00,22.9,22.1,00.0,31.8,24.7,06.0,0000.6,0013.84,0009.64,0009.16
2022-03-11 16:20:00,,0828.3,5.01,0.00,22.9,22.1,00.0,31.8,24.7,06.0,0001.0,0013.79,0009.61,0009.11
2022-03-11 16:21:00,,0828.3,5.01,0.00,22.9,22.1,00.0,31.8,24.6,06.0,0001.5,0013.68,0009.53,0009.04
2022-03-11 16:22:00,,0828.3,5.00,0.00,22.9,22.0,00.0,31.8,24.6,06.1,0001.2,0013.50,0009.51,0008.99
2022-03-11 16:23:00,,0828.3,5.01,0.00,22.9,22.1,00.0,31.8,24.7,06.1,0001.7,0013.43,0009.50,0008.98
2022-03-11 16:24:00,,0828.3,5.00,0.00,22.9,22.1,00.0,31.8,24.7,06.1,0001.8,0013.24,0009.47,0008.99
2022-03-11 16:25:00,,0828.3,4.98,0.00,22.9,22.1,00.0,31.8,24.7,06.1,0001.7,0013.50,0009.46,0008.99
2022-03-11 16:26:00,,0828.3,5.01,0.00,22.9,22.1,00.0,31.8,24.7,06.0,0002.0,0013.48,0009.47,0008.99
2022-03-11 16:27:00,,0828.3,5.01,0.00,22.9,22.1,00.0,31.8,24.7,06.0,0002.5,0013.55,0009.48,0008.98
2022-03-11 16:28:00,,0828.2,5.00,0.00,22.9,22.1,00.0,31.8,24.7,05.9,0002.4,0013.55,0009.44,0008.95
2022-03-11 16:29:00,,0828.2,5.01,0.00,22.9,22.2,00.0,31.8,24.7,06.1,0002.5,0013.61,0009.41,0008.93
2022-03-11 16:30:00,,0828.2,5.00,0.00,23.0,23.0,00.0,31.8,24.8,06.1,0002.3,0013.70,0009.46,0008.96
2022-03-11 16:31:00,,0828.3,5.00,0.00,23.1,23.9,00.0,31.9,25.1,06.1,0001.8,0013.79,0009.49,0009.01
2022-03-11 16:32:00,,0828.2,4.99,0.00,23.2,23.9,00.0,31.9,25.2,06.0,0001.5,0013.87,0009.51,0009.05
2022-03-11 16:33:00,,0828.2,5.00,0.00,23.2,23.7,00.0,32.0,25.2,06.1,0001.5,0013.82,0009.50,0009.07
2022-03-11 16:34:00,,0828.3,5.00,0.00,23.3,23.5,00.0,32.0,25.1,06.3,0001.3,0013.82,0009.50,0009.07
2022-03-11 16:35:00,,0828.1,5.00,0.00,23.3,23.3,00.0,32.0,25.1,06.2,0001.2,0014.05,0009.56,0009.05
2022-03-11 16:36:00,,0828.2,5.02,0.00,23.3,23.2,00.0,32.0,25.1,06.3,0001.1,0013.91,0009.58,0009.06
2022-03-11 16:37:00,,0828.3,5.00,0.00,23.3,23.0,00.0,32.0,25.1,06.4,0000.8,0013.95,0009.59,0009.07
2022-03-11 16:38:00,,0828.3,4.99,0.00,23.3,22.9,00.0,32.1,25.1,06.2,0000.2,0013.97,0009.63,0009.09
2022-03-11 16:39:00,,0828.4,5.00,0.00,23.3,22.8,00.0,32.1,25.1,06.3,-000.1,0014.02,0009.67,0009.15
2022-03-11 16:40:00,,0828.2,5.00,0.00,23.3,22.8,00.0,32.1,25.1,06.4,-000.2,0014.75,0009.71,0009.19
2022-03-11 16:41:00,,0828.2,5.01,0.00,23.3,22.7,00.0,32.1,25.0,06.6,-000.0,0014.91,0009.74,0009.22
2022-03-11 16:42:00,,0828.3,5.01,0.00,23.2,22.6,00.0,32.1,25.0,06.8,0000.1,0014.99,0009.84,0009.30
2022-03-11 16:43:00,,0828.1,5.00,0.00,23.2,22.6,00.0,32.1,25.0,07.0,0000.2,0015.16,0009.96,0009.40
2022-03-11 16:44:00,,0828.2,5.00,0.00,23.2,22.6,00.0,32.1,25.0,07.1,-000.0,0015.41,0010.11,0009.53
2022-03-11 16:45:00,,0828.3,5.00,0.00,23.2,22.5,00.0,32.1,25.0,06.9,-000.1,0015.57,0010.25,0009.67
2022-03-11 16:46:00,,0828.1,5.00,0.00,23.2,22.5,00.0,32.1,25.0,07.0,-000.2,0015.52,0010.31,0009.80
2022-03-11 16:47:00,,0828.2,5.00,0.00,23.2,22.5,00.0,32.1,25.0,06.7,-000.0,0015.45,0010.42,0009.91
2022-03-11 16:48:00,,0828.2,5.00,0.00,23.2,22.5,00.0,32.1,25.0,06.7,-000.0,0015.61,0010.57,0010.02
2022-03-11 16:49:00,,0828.1,5.00,0.00,23.2,22.5,00.0,32.1,25.0,06.8,0000.2,0015.82,0010.68,0010.12
2022-03-11 16:50:00,,0828.1,5.00,0.00,23.2,22.4,00.0,32.1,25.0,06.9,0000.9,0015.98,0010.77,0010.20
2022-03-11 16:51:00,,0828.0,5.00,0.00,23.2,22.4,00.0,32.1,25.0,06.9,0000.5,0015.25,0010.89,0010.29
2022-03-11 16:52:00,,0828.2,5.00,0.00,23.2,22.4,00.0,32.1,25.0,06.9,0000.5,0016.34,0010.97,0010.36
2022-03-11 16:53:00,,0828.0,5.00,0.00,23.2,22.4,00.0,32.1,24.9,07.0,0000.3,0016.50,0011.03,0010.43
2022-03-11 16:54:00,,0828.1,5.00,0.00,23.1,22.4,00.0,32.1,24.9,07.0,0000.1,0016.59,0011.12,0010.51
2022-03-11 16:55:00,,0828.2,5.00,0.00,23.1,22.3,00.0,32.1,24.9,07.2,0000.8,0016.71,0011.22,0010.59
2022-03-11 16:56:00,,0828.2,5.00,0.00,23.1,22.3,00.0,32.1,24.9,07.2,0000.9,0016.72,0011.26,0010.66
2022-03-11 16:57:00,,0828.1,5.00,0.00,23.1,22.2,00.0,32.1,24.8,07.1,0000.7,0016.82,0011.34,0010.73
2022-03-11 16:58:00,,0828.1,4.99,0.00,23.0,22.2,00.0,32.0,24.8,07.1,0000.6,0017.75,0011.39,0010.80
2022-03-11 16:59:00,,0828.2,5.01,0.00,23.0,22.1,00.0,32.0,24.8,07.1,0000.5,0018.63,0011.42,0010.87
